#timestamp,LO_Frequency,Hit,StdDev 
1561046415.5,286047000.2,N
1561046435.3,286046999.7,N
1561046455.2,286047000.0,N
1561046475.9,286046999.7,N
1561046495.7,286047000.3,N
1561046515.6,286047000.6,N
1561046535.4,286046999.8,N
1561046555.2,286047002.5,N
1561046575.1,286046999.8,N
1561046576.0,286046999.8,N
1561046595.8,286047000.1,N
1561046615.7,286047000.1,N
1561046635.5,286046999.8,N
1561046655.3,286047002.5,N
1561046675.2,286047001.8,N
1561046695.0,286047001.9,N
1561046695.9,286047001.9,N
1561046715.8,286047001.8,N
1561046735.6,286047001.9,N
1561046755.4,286047004.4,Y
1561046775.3,286047000.1,P
1561046795.1,286047002.2,P
1561046815.8,286047000.1,N
1561046835.7,286046999.8,N
1561046855.5,286047000.2,N
1561046875.4,286047002.2,N
1561046895.2,286046999.8,N
1561046915.0,286047002.3,N
1561046915.9,286047002.3,N
1561046935.8,286046999.8,N
1561046955.6,286047000.2,N
1561046975.5,286047002.3,N
1561046995.3,286046999.8,N
1561047015.1,286046999.9,N
1561047035.9,286047000.1,N
1561047055.7,286047000.0,N
1561047075.5,286047002.7,N
1561047095.4,286047001.9,N
1561047115.2,286047001.9,N
1561047135.1,286046999.8,N
1561047136.0,286046999.8,N
1561047155.8,286047004.4,Y
1561047175.6,286047002.8,P
1561047195.5,286046999.8,N
1561047215.3,286047001.0,N
1561047235.2,286046998.4,N
1561047255.9,286046996.6,N
1561047275.7,286046997.1,N
1561047295.6,286046996.7,N
1561047315.4,286046996.5,N
1561047335.2,286046999.5,N
1561047355.1,286046999.1,N
1561047356.0,286046999.1,N
1561047375.8,286046998.8,N
1561047395.7,286046998.7,N
1561047415.5,286046996.6,N
1561047435.3,286046999.2,N
1561047455.2,286046999.3,N
1561047475.0,286046999.6,N
1561047475.9,286046999.6,N
1561047495.8,286046996.6,N
1561047515.6,286046996.6,N
1561047535.4,286046996.7,N
1561047555.3,286046997.0,N
1561047575.1,286046996.9,N
1561047595.8,286046996.6,N
1561047615.7,286046996.6,N
1561047635.5,286046996.5,N
1561047655.4,286046996.9,N
1561047675.2,286046996.9,N
1561047695.0,286046997.1,N
1561047695.9,286046997.1,N
1561047715.8,286046995.4,N
1561047735.6,286046995.8,Y
1561047755.5,286046997.2,P
1561047775.3,286046997.2,P
1561047795.1,286046997.4,P
1561047815.9,286046997.5,Y
1561047835.7,286046998.5,P
1561047855.6,286046998.8,N
1561047875.4,286047000.9,N
1561047895.2,286046998.5,N
1561047915.1,286046998.6,N
1561047916.0,286046998.6,N
1561047935.8,286047000.9,N
1561047955.7,286047000.0,N
1561047975.5,286046999.8,N
1561047995.3,286047002.3,N
1561048015.2,286046999.8,N
1561048035.0,286047000.0,N
1561048035.9,286047000.0,N
1561048055.8,286047000.6,N
1561048075.6,286047001.2,N
1561048095.4,286046998.1,N
1561048115.3,286046998.8,N
1561048135.1,286047001.2,N
1561048155.8,286046999.7,N
1561048175.7,286047002.7,N
1561048195.5,286047002.6,N
1561048215.4,286047002.3,N
1561048235.2,286047000.0,N
1561048255.0,286047002.4,N
1561048255.9,286047002.4,N
1561048275.8,286046999.9,N
1561048295.6,286047000.5,N
1561048315.5,286047000.2,N
1561048335.3,286046998.2,N
1561048355.1,286047001.2,N
1561048375.9,286047000.8,N
1561048395.7,286047000.5,N
1561048415.5,286047002.8,N
1561048435.4,286047000.9,N
1561048455.2,286047000.4,N
1561048475.1,286047000.1,N
1561048476.0,286047000.1,N
1561048495.8,286047000.4,N
1561048515.6,286047000.5,N
1561048535.5,286046998.1,N
1561048555.3,286047000.6,N
1561048575.2,286047002.7,N
1561048595.9,286046999.8,N
1561048615.7,286047002.5,N
1561048635.6,286047002.8,N
1561048655.4,286047000.4,N
1561048675.2,286046999.7,N
1561048695.1,286047000.0,N
1561048696.0,286047000.0,N
1561048715.8,286047002.6,N
1561048735.7,286046999.7,N
1561048755.5,286047002.8,N
1561048775.3,286047002.2,N
1561048795.2,286047001.9,N
1561048815.0,286047002.0,N
1561048815.9,286047002.0,N
1561048835.7,286047002.0,N
1561048855.6,286047002.6,N
1561048875.4,286047004.3,Y
1561048895.3,286047002.0,P
1561048915.1,286047001.6,P
1561048916.0,286047001.6,P
1561048935.8,286047001.8,Y
1561048955.7,286047000.1,P
1561048975.5,286047000.4,N
1561048995.4,286047002.4,P
1561049015.2,286047000.0,N
1561049035.0,286047000.5,N
1561049035.9,286047000.5,N
1561049055.8,286047000.4,N
1561049075.6,286047000.0,N
1561049095.4,286047002.8,Y
1561049115.3,286047001.0,P
1561049135.1,286047000.5,N
1561049155.9,286047000.2,N
1561049175.7,286047000.1,N
1561049195.5,286046999.9,N
1561049215.4,286047000.4,N
1561049235.2,286047002.1,Y
1561049255.0,286046998.2,P
1561049256.0,286046998.2,N
1561049275.8,286046999.4,N
1561049295.6,286047000.8,N
1561049315.5,286046999.2,N
1561049335.3,286046998.9,N
1561049355.1,286046998.8,N
1561049375.9,286046998.9,N
1561049395.7,286046999.3,N
1561049415.5,286046999.0,N
1561049435.4,286046998.5,N
1561049455.2,286046998.4,N
1561049475.1,286046998.2,N
1561049476.0,286046998.2,N
1561049495.8,286046998.6,N
1561049515.6,286047001.0,N
1561049535.5,286046998.5,N
1561049555.3,286046998.2,N
1561049575.2,286046998.5,N
1561049595.9,286047001.2,N
1561049615.7,286046998.2,N
1561049635.6,286046998.5,N
1561049655.4,286046998.2,N
1561049675.2,286047000.8,N
1561049695.1,286047001.2,N
1561049696.0,286047001.2,N
1561049715.8,286047000.6,N
1561049735.7,286047001.1,N
1561049755.5,286046998.6,N
1561049775.3,286046998.3,N
1561049795.2,286046998.8,N
1561049815.0,286046998.3,N
1561049815.9,286046998.3,N
1561049835.7,286047000.3,N
1561049855.6,286047000.0,N
1561049875.4,286047000.3,N
1561049895.3,286047000.6,N
1561049915.1,286047000.0,N
1561049916.0,286047000.0,N
1561049935.8,286047002.3,N
1561049955.7,286047000.1,N
1561049975.6,286047000.5,N
1561049995.5,286046998.1,N
